Regional Weather Roundup
Issued by NWS

Home | Current Version | Previous Version | Text Only | Print | Product List | Glossary Off
Versions: 1 2 3 4 5 6 7 8 9 10 11 12 13 14 15 16 17 18 19 20 21 22 23 24 25 26 27 28 29 30 31 32 33 34 35 36 37 38 39 40 41 42 43 44 45 46 47 48 49 50

000
ASUS43 KLOT 180258
RWRIL

ILLINOIS REGIONAL WEATHER ROUNDUP
NATIONAL WEATHER SERVICE CHICAGO/ROMEOVILLE IL
1000 PM CDT THU APR 17 2014

NOTE: "FAIR" INDICATES FEW OR NO CLOUDS BELOW 12,000 FEET WITH NO
SIGNIFICANT WEATHER AND/OR OBSTRUCTIONS TO VISIBILITY.

* THESE STATIONS ARE NOT UNDER NWS QUALITY CONTROL. THEY ALSO MAY NOT
  REPORT WEATHER SUCH AS PRECIPITATION OR FOG.

ILZ001-002-007-009-015-016-024-180400-
NORTHWEST ILLINOIS

CITY           SKY/WX    TMP DP  RH WIND       PRES   REMARKS
MOLINE         MOCLDY    44  34  67 W5        30.27S
$$

ILZ003-004-008-010-011-017-018-180400-
NORTH CENTRAL ILLINOIS

CITY           SKY/WX    TMP DP  RH WIND       PRES   REMARKS
ROCKFORD       NOT AVBL
$$

ILZ005-006-012>014-019>023-180400-
NORTHEAST ILLINOIS

CITY           SKY/WX    TMP DP  RH WIND       PRES   REMARKS
CHICAGO-OHARE  CLOUDY    53  37  54 W5        30.24S
CHICAGO-MIDWAY CLOUDY    55  39  54 W5        30.24F
AURORA         CLOUDY    47  38  71 W6        30.25S
WAUKEGAN       CLOUDY    44  36  73 SE3       30.24S
DUPAGE AIRPORT CLOUDY    50  38  63 W7        30.24S
WHEELING       CLOUDY    50  38  63 NE6       30.26R
NORTHERLY ISL    N/A     56  37  49 W5          N/A
$$

LMZ740>746-180400-
SOUTHERN LAKE MICHIGAN

STATION/POSITION SKY/WX   TEMP    WIND        PRES    VSBY  WAVE
                          AIR SEA DIR/SP/G                  HT/PER
                          (F)     (DEG/KT/KT) (MB)    (MI)  (FT/S)
WAUKEGAN HARBOR            46      50/  3/  4 1025.7R
HARRISON CRIB              56     260/  9/ 11   N/A
BURNHAM HARBOR             55     270/  2/  9   N/A
CALUMET HARBOR             56     240/  2/  5 1024.9R
MICHIGAN CITY              51     260/  1/  1   N/A
$$

ILZ025>027-034>036-040-047-049-050-058-095>099-180400-
WEST-CENTRAL ILLINOIS

CITY           SKY/WX    TMP DP  RH WIND       PRES   REMARKS
$$

ILZ028>032-037-038-041>044-048-051>054-059>061-180400-
CENTRAL ILLINOIS

CITY           SKY/WX    TMP DP  RH WIND       PRES   REMARKS
PEORIA         NOT AVBL
SPRINGFIELD    CLOUDY    52  38  58 N5        30.27R
TAYLORVILLE    NOT AVBL
$$

ILZ033-039-045-046-055>057-062-063-180400-
EAST-CENTRAL ILLINOIS

CITY           SKY/WX    TMP DP  RH WIND       PRES   REMARKS
CHAMPAIGN      CLOUDY    50  41  71 NW7       30.25S
$$

ILZ079-100>102-180400-
SOUTHWEST ILLINOIS

CITY           SKY/WX    TMP DP  RH WIND       PRES   REMARKS
ALTON          CLEAR     54  37  54 N7        30.27R
CAHOKIA*       MOCLDY    56  42  59 N7        30.26R
$$

ILZ064>066-069>071-074>076-080>082-084>086-088>090-092>094-180400-
SOUTH-CENTRAL ILLINOIS

CITY           SKY/WX    TMP DP  RH WIND       PRES   REMARKS
CARBONDALE     PTCLDY    53  39  59 CALM      30.26R
$$

ILZ067-068-072-073-078-083-087-091-180400-
SOUTHEAST ILLINOIS

CITY           SKY/WX    TMP DP  RH WIND       PRES   REMARKS
$$

ABBREVIATIONS USED IN REMARKS
   TC - TEMPERATURE IN CELSIUS
  WCI - WIND CHILL INDEX
   HX - HEAT INDEX
  VSB - VISIBILITY
$$




USA.gov is the U.S. government's official web portal to all federal, state and local government web resources and services.